Location: Stamford Observatory
(41.1241°N, 73.5498°W)
Time: 06:03:59
(UTC-04:00)

Daily predictions for brighter satellites

Satellite Brightness Start Highest point End
(mag) Time Altitude Azimuth Time Altitude Azimuth Time Altitude Azimuth
USA 229 DEB 4.5 20:09:39 10° SSE 20:15:16 28° ESE 20:20:57 10° NE
USA 229 4.5 20:09:47 10° SSE 20:15:23 28° ESE 20:21:03 10° NE
GRACE-1 3.9 20:13:56 10° N 20:16:41 81° W 20:19:24 10° S
GRACE-2 3.9 20:14:18 10° N 20:17:03 82° W 20:19:46 10° S
Cosmos 1315 Rocket 3.7 20:15:03 10° NNW 20:19:01 54° W 20:22:55 10° S
DELTA 2 R/B(2) 4.4 20:15:25 10° W 20:20:05 62° S 20:22:09 10° ESE
Cosmos 2142 Rocket 4.5 20:17:52 10° S 20:23:59 81° E 20:30:11 10° N
ALOS 3.6 20:20:33 10° S 20:24:58 42° W 20:29:24 10° NNW
OAO 3 Rocket 4.0 20:20:47 10° WSW 20:25:17 38° S 20:29:50 10° ESE
YAOGAN 6 4.5 20:24:06 10° ESE 20:26:16 15° ENE 20:28:26 10° NNE
Cosmos 1933 3.8 20:26:07 10° SSE 20:29:54 41° E 20:33:43 10° NNE
Cosmos 1992 Rocket 4.0 20:26:31 10° S 20:31:44 73° ESE 20:36:58 10° NNE
Meteor 2-10 Rocket 4.4 20:28:03 10° SSE 20:33:18 36° E 20:38:31 10° NNE
Cosmos 2026 Rocket 4.0 20:27:12 10° N 20:33:26 81° E 20:39:33 10° S
Cosmos 2219 Rocket 4.0 20:38:26 10° E 20:38:54 10° E 20:39:44 10° E
Cosmos 1733 Rocket 3.1 20:34:53 10° N 20:39:21 70° E 20:43:47 10° SSE
USA 267 3.7 20:36:09 10° NE 20:42:39 67° NW 20:49:07 10° WSW
Helios 1A 3.0 20:39:54 10° SSE 20:44:07 72° ENE 20:48:22 10° N
Cosmos 1862 3.3 20:40:36 10° N 20:44:39 78° E 20:48:42 10° S
Cosmos 1862 Rocket 3.5 20:44:48 10° S 20:49:15 80° E 20:53:46 10° N
Cosmos 2263 Rocket 2.4 20:54:02 10° NNW 20:59:35 73° WSW 21:05:08 10° SSE
Cosmos 968 Rocket 3.5 21:00:03 10° NNW 21:05:15 68° ENE 21:09:04 18° SSE
USA 186 3.6 21:04:16 10° SSW 21:06:43 27° W 21:09:19 10° NW
SAR-Lupe-4 4.0 21:03:12 10° S 21:06:45 61° W 21:10:18 10° NNW
Cosmos 1939 Rocket 2.8 21:03:24 13° SSE 21:06:55 86° ENE 21:10:55 10° N
Cosmos 1703 Rocket 3.8 21:06:20 14° SSE 21:09:59 49° E 21:14:15 10° NNE
Cosmos 2322 Rocket 3.8 21:06:11 10° SW 21:11:23 38° WNW 21:16:37 10° N
Cosmos 2237 4.3 21:06:04 10° S 21:11:36 51° ESE 21:17:08 10° NNE
Atlas Centaur 2 3.4 21:09:31 10° WSW 21:15:29 35° S 21:19:23 22° SE
USA 234 3.4 21:12:08 20° ESE 21:16:51 71° NE 21:23:22 10° NW
Cosmos 1825 4.4 21:14:22 10° NW 21:17:31 25° W 21:20:41 10° SW
Cosmos 2360 Rocket 2.3 21:13:11 10° SSW 21:18:51 83° WNW 21:24:33 10° NNE
Abrixas rocket 4.4 21:17:20 10° NW 21:20:00 22° N 21:22:26 11° NE
COSMOS 2428 2.9 21:15:38 10° S 21:21:01 46° ESE 21:26:27 10° NE
Cosmos 2266 Rocket 4.0 21:16:12 10° N 21:22:30 68° E 21:27:06 20° SSE
Envisat 3.5 21:17:35 10° S 21:22:34 58° W 21:27:35 10° NNW
Meteor 1-29 3.9 21:19:23 10° N 21:22:45 49° WNW 21:26:05 10° SSW
CZ-4B DEB 4.0 21:22:31 15° SSW 21:24:42 37° W 21:27:33 10° NNW
Lacrosse 4 Rocket 4.1 21:23:41 10° WNW 21:26:21 16° WSW 21:29:02 10° SW
Helios 1B rocket 3.7 21:22:34 10° N 21:26:27 42° WNW 21:30:18 10° SW
Cosmos 1867 3.7 21:22:13 10° NW 21:27:40 73° WSW 21:30:53 25° SSE
H-2A R/B 3.2 21:28:32 22° E 21:29:47 25° ENE 21:33:45 10° NNE
Milstar 3 4.1 21:25:20 10° WSW 21:31:10 22° SSW 21:33:53 18° S
ATLAS 5 CENTAUR R/B 2.8 21:25:23 10° NW 21:31:22 62° WSW 21:35:40 22° SSE
NOAA 11 4.3 21:29:03 28° SE 21:31:51 59° ENE 21:37:15 10° N
Cosmos 2221 Rocket 3.5 21:32:02 27° S 21:34:23 68° E 21:38:49 10° NNE
YAOGAN 11 4.3 21:33:34 38° SE 21:34:52 53° ENE 21:39:06 10° N
Cosmos 2322 4.0 21:30:53 10° SSW 21:36:35 70° WNW 21:42:18 10° NNE
Meteor 1-14 Rocket 4.2 21:31:23 10° N 21:37:06 88° E 21:40:43 24° S
Meteor 1-25 Rocket 4.2 21:32:37 10° N 21:38:11 66° ENE 21:40:41 33° SSE
ARGOS 3.4 21:37:30 33° SE 21:39:31 51° ENE 21:44:43 10° N
Cosmos 1606 3.8 21:42:02 28° ENE 21:42:02 28° ENE 21:44:34 10° NNE
ERS-1 Rocket 3.0 21:42:01 27° S 21:44:50 76° WSW 21:49:53 10° NNW
SeaSat 1 3.2 21:44:57 32° E 21:46:22 40° ENE 21:50:58 10° NNW
Meteor 1-20 Rocket 4.2 21:42:17 10° N 21:47:53 71° E 21:50:10 37° SSE
Cosmos 2208 Rocket 4.4 21:53:06 41° ESE 21:53:17 41° ESE 21:58:15 10° NE
H-2A R/B 3.5 21:53:54 23° ENE 21:53:54 23° ENE 21:57:13 10° NNE
Cosmos 2237 Rocket 3.2 21:58:36 28° E 21:58:36 28° E 22:02:24 10° NE
Cosmos 2333 4.1 21:53:02 10° SSW 21:58:45 85° ESE 22:04:33 10° NNE
NOSS 3-1 (C) 3.3 21:54:38 15° SSW 21:59:24 60° ESE 22:05:38 10° NE
YAOGAN 6 4.1 21:58:12 24° SW 21:59:34 33° W 22:02:51 10° NNW
Cosmos 2333 Rocket 2.5 22:00:04 44° ESE 22:00:28 45° ESE 22:05:56 10° NE
SPOT 5 2.7 21:59:59 53° SSE 22:01:05 83° ENE 22:05:42 10° NNW
Cosmos 1844 Rocket 2.6 21:55:35 10° NNW 22:01:11 79° ENE 22:02:44 49° SE
SL-08 RB Rocket 3.7 22:01:17 58° ESE 22:01:51 65° ENE 22:06:22 10° N
Cosmos 2278 Rocket 3.0 21:57:17 10° N 22:02:27 35° ENE 22:03:38 32° E
Meteor 2-6 Rocket 4.3 22:01:35 43° SSE 22:03:25 62° E 22:09:17 10° NNE
USA 229 DEB 4.2 21:59:03 10° SW 22:05:46 59° NW 22:12:39 10° NNE
USA 229 4.2 21:59:09 10° SW 22:05:52 60° NW 22:12:45 10° NNE
MetOp-A 4.3 22:04:25 36° S 22:06:36 69° WSW 22:11:57 10° NNW
CZ-4C R/B 3.4 22:01:59 10° NNW 22:08:46 46° NE 22:11:50 32° E
ASTEX 1 3.9 22:15:28 43° ENE 22:15:28 43° ENE 22:20:03 10° N
NOSS 3-1 (A) 3.3 22:15:19 54° SSE 22:16:04 58° ESE 22:22:18 10° NE
SPOT 1/Viking Rocket 3.4 22:16:34 63° SSE 22:17:27 83° ENE 22:22:41 10° NNW
Cosmos 2219 Rocket 2.0 22:20:01 44° SSW 22:21:54 85° ESE 22:27:33 10° NNE
USA 245 4.3 22:21:27 45° SSW 22:22:59 65° WSW 22:27:47 10° NNW
Okean 1-7 4.4 22:21:00 22° SW 22:23:20 37° WNW 22:27:27 10° N
S3M 3.9 22:28:26 60° SE 22:29:08 64° E 22:35:18 10° NNE
Landsat 7 3.8 22:29:26 70° NE 22:29:26 70° NE 22:34:01 10° N
Okean 2 Rocket 4.1 22:25:49 10° NNW 22:30:02 40° W 22:30:55 36° WSW
Cosmos 1782 3.6 22:30:21 45° W 22:30:35 46° W 22:34:28 10° N
Cosmos 2084 4.2 22:34:32 10° NNW 22:37:17 44° NNW 22:37:17 44° NNW
Meteor 2-11 Rocket 4.4 22:38:49 62° E 22:38:57 62° E 22:44:58 10° NNE
Cosmos 1633 4.0 22:36:55 10° NNW 22:39:16 37° NNW 22:39:16 37° NNW
Terra 2.1 22:45:02 60° NNE 22:45:02 60° NNE 22:49:08 10° N
ATLAS 3B R/B 4.5 22:39:21 10° NNW 22:44:29 21° NNE 22:47:54 15° ENE
Cosmos 1346 Rocket 4.1 22:46:34 37° N 22:46:34 37° N 22:49:05 10° N
Meteor 1-27 Rocket 3.6 22:46:37 79° SSW 22:46:58 87° W 22:52:35 10° N
Cosmos 2297 4.3 22:53:14 10° NNW 22:58:30 44° NE 22:58:30 44° NE
CZ-4B R/B 4.5 22:55:14 10° NNE 22:58:07 35° NE 22:58:07 35° NE
USA 234 4.2 22:59:28 32° SW 23:00:07 32° SW 23:05:54 10° WNW
Cosmos 1745 Rocket 3.9 22:56:01 10° N 23:02:23 82° W 23:02:51 76° SSW
Atlas Centaur 2 4.0 22:58:00 10° WSW 23:02:01 27° SW 23:02:01 27° SW
H-2A R/B 3.0 23:09:10 38° W 23:09:10 38° W 23:13:37 10° NNW
Cosmos 2285 Rocket 4.4 23:13:34 51° ENE 23:13:34 51° ENE 23:18:39 10° NNE
Meteor 1-11 Rocket 4.1 23:08:21 10° NNW 23:13:39 53° W 23:13:39 53° W
Cosmos 1980 4.1 23:13:33 55° W 23:14:09 58° WNW 23:19:44 10° NNE
Cosmos 2298 Rocket 4.4 23:11:02 10° NNW 23:15:27 62° NNW 23:15:27 62° NNW
NOSS 0 Rocket 4.5 23:16:17 38° WSW 23:18:17 53° WNW 23:24:19 10° NNE
Timation 1 Rocket 4.4 23:12:28 10° NNW 23:18:00 75° NW 23:18:00 75° NW
Okean 1 Rocket 4.4 23:15:02 10° NNW 23:17:55 39° NNW 23:17:55 39° NNW
SL-16 R/B 3.1 23:22:16 39° NE 23:22:16 39° NE 23:25:52 10° NNE
SeaSat 1 4.1 23:24:45 26° W 23:24:45 26° W 23:28:08 10° NW
H-2A R/B 4.0 23:31:01 25° WNW 23:31:01 25° WNW 23:33:30 10° NW
Cosmos 1937 Rocket 4.2 23:27:53 10° NNW 23:31:47 50° NNW 23:31:47 50° NNW
Cosmos 2237 Rocket 3.3 23:40:20 36° W 23:41:23 39° WNW 23:46:43 10° N
Cosmos 2333 Rocket 3.9 23:41:57 19° W 23:44:54 28° NW 23:49:52 10° N
Cosmos 2278 Rocket 3.5 23:41:25 10° NW 23:45:29 32° W 23:45:29 32° W
CZ-2C R/B 4.2 23:41:36 10° NNE 23:44:26 26° NE 23:44:26 26° NE
Cosmos 2315 Rocket 4.2 23:51:44 67° NNW 23:51:44 67° NNW 23:57:13 10° N
